Regional Weather Roundup
Issued by NWS Charleston, SC

Current Version | Previous Version | Graphics & Text | Print | Product List | Glossary On
Versions: 1 2 3 4 5 6 7 8 9 10 11 12 13 14 15 16 17 18 19 20 21 22 23 24 25 26 27 28 29 30 31 32 33 34 35 36 37 38 39 40 41 42 43 44 45 46 47 48 49 50
000 ASUS42 KCHS 250512 RWRCHS Regional Weather Roundup National Weather Service Charleston SC 100 AM EDT WED APR 25 2018 NOTE: "fair" indicates few or no clouds below 12,000 feet with no significant weather and/or obstructions to visibility. Not all stations are quality controlled. Use data with caution, especially dewpoint observations. SCZ027-030-031-034>040-042>050-250600- ...Southeast South Carolina... CITY SKY/WX TMP DP RH WIND PRES REMARKS N Charleston FAIR 66 56 70 W7 29.84F Waterfront Prk N/A 66 60 81 VRB3 29.70F Mount Pleasant MOCLDY 64 61 88 SW3 29.84F Johns Island MOCLDY 64 59 82 SW6 29.85F Pinopolis N/A 66 59 77 SW8 29.74F Moncks Corner CLOUDY 64 55 72 SW6 29.84S Summerville MOCLDY 63 55 77 CALM 29.85F Beaufort MCAS MOCLDY 64 58 80 SW7 29.86F Beaufort Arpt MOCLDY 64 55 72 SW9 29.86F Hilton Head Is FAIR 68 55 64 SW7 29.88S Walterboro CLOUDY 64 55 72 CALM 29.86S Allendale CLOUDY 64 57 77 CALM 29.85S ...Southern Midlands and Pee Dee... CITY SKY/WX TMP DP RH WIND PRES REMARKS Georgetown FAIR 61 61 100 SW9 29.84S Kingstree MOCLDY 63 55 77 SW6 29.82S Orangeburg CLOUDY 64 56 75 SW10 29.83S Barnwell CLOUDY 63 57 82 SW6 29.84F Aiken MOCLDY 61 55 82 SW7 29.87S Manning FAIR 61 52 72 SW6 29.82F Columbia CLOUDY 66 60 81 W6 29.80F Sumter NOT AVBL Florence FAIR 62 56 80 SW6 29.79F Myrtle Beach MOCLDY 64 59 83 SW7 29.83S N Myrtle Beach FAIR 63 61 93 SW9 29.81S $$ GAZ063-065-086>088-099>101-113>116-118-119-134>141-150-250600- ...Southeast Georgia... CITY SKY/WX TMP DP RH WIND PRES REMARKS Savannah Arpt CLOUDY 66 56 70 W8 29.88S Hunter AAF NOT AVBL Fort Stewart NOT AVBL Statesboro CLOUDY 66 55 66 SW5 29.88S Sylvania CLOUDY 65 60 83 CALM 29.88S Claxton CLOUDY 67 58 73 SW3 29.90S ...CSRA, Central and far Southeast Georgia... CITY SKY/WX TMP DP RH WIND PRES REMARKS Thomson CLOUDY 62 56 82 NW7 29.90F Augusta-Bush CLOUDY 63 57 81 SW6 29.84S Augusta-Daniel CLOUDY 65 56 72 W5 29.85S Swainsboro FAIR 63 57 82 W5 29.90S Vidalia CLOUDY 64 59 82 W5 29.91S Eastman FAIR 60 51 71 SW3 29.94S Hazlehurst FAIR 64 55 72 CALM 29.91S Alma FAIR 64 56 75 W6 29.92R Waycross CLOUDY 65 60 86 SW5 29.92S Jesup NOT AVBL Baxley MOCLDY 61 57 88 W5 29.91S Brunswick CLOUDY 64 55 72 W5 29.91F Saint Simons CLOUDY 66 58 75 W3 29.90F $$ SCZ027-028-034-036>038-045-046-048>050-GAZ119-141-250600- ...Lake and Supplemental Coastal Observations... STATION/POSITION TIME TEMP WIND PRES WAVE SWELL AIR SEA DIR/SP/G HT/PER HT/PER/DIR (UTC) (F) (DEG/KT/KT) (MB) (FT/S) (FT/S/D) Winyah Bay 0345 65 230/ 6 1010.0 Lake Murray 0420 63 250/ 5/ 8 1008.8 ACE Basin NERRS 0345 66 350/ 2 N/A Fort Pulaski 0442 67 67 250/ 7/ 9 1012.1F Sapelo Island 0400 67 250/ 5 1013.0 $$ ANZ835-935-AMZ111-154-330-350-352-354-370-450-454-472-250600- ...C-MAN and Buoy Observations... STATION/POSITION TIME TEMP WIND PRES WAVE SWELL AIR SEA DIR/SP/G HT/PER HT/PER/DIR (UTC) (F) (DEG/KT/KT) (MB) (FT/S) (FT/S/D) Buoy 41004 0450 69 230/ 16/ 19 1010.8R 9/11 7/100/11 Buoy 41008 0450 68 65 240/ 10/ 12 1011.9F 4/ 8 3/ 80/ 8 Folly Beach CMAN 0400 65 230/ 7/ 8 1011.7S Capers Nearshore 0408 65 64 240/ 8/ 12 1010.4F Fripp Nearshore 0408 67 65 250/ 6/ 10 1011.2F STATION/POSITION TIME TEMP WIND PRES WAVE SWELL AIR SEA DIR/SP/G HT/PER HT/PER/DIR (UTC) (F) (DEG/KT/KT) (MB) (FT/S) (FT/S/D) 5E St. Marys GA 0500 68 N/A 4/ 9 Frying Pan Buoy 0450 71 71 210/ 17/ 23 1010.1F 10/11 8/110/11 Buoy 41025 0500 73 70 180/ 17/ 21 1009.8 Cape Lookout NC 0400 240/ 9/ 13 1010.3S Buoy 41002 0450 72 73 170/ 19/ 25 1012.9F 9/ 9 7/130/ 9 Buoy 41010 0450 76 76 190/ 21/ 29 1012.6S 7/ 9 5/ 70/ 9 St Augustine FL 0500 64 67 270/ 8/ 11 1013.6F $$

USA.gov is the U.S. government's official web portal to all federal, state and local government web resources and services.